QPF
0.00 0.00 0.00 0.00 0.00 0.00 0.00 0.00 0.00 0.00 0.00 0.00 0.00 0.00 0.00 0.00 0.00 0.00 0.00 0.00 0.00 0.00 0.00 0.00 0.00 0.00 0.00 0.00 0.00 0.00 0.00 0.00 0.00 0.00 0.00 0.00 0.00 0.00 0.00 0.00 0.00 0.00 0.00 0.00 0.00 0.00 0.00 0.00 0.00
0.00 0.00 0.00 0.00 0.00 0.00 0.00 0.00 0.00 0.00 0.00 0.00 0.00 0.00 0.00 0.00 0.00 0.00 0.00 0.00 0.00 0.00 0.00 0.00 0.00 0.00 0.00 0.00 0.00 0.00 0.00 0.00 0.00 0.00 0.00 0.00 0.00 0.00 0.00 0.00 0.00 0.00 0.00 0.00 0.00 0.00 0.00 0.00 0.00
0.00 0.00 0.00 0.00 0.00 0.00 0.00 0.00 0.00 0.00 0.00 0.00 0.00 0.00 0.00 0.00 0.00 0.00 0.00 0.00 0.00 0.00 0.00 0.00 0.00 0.00 0.00 0.00 0.00 0.00 0.00 0.00 0.00 0.00 0.00 0.00 0.00 0.00 0.00 0.00 0.00 0.00 0.00 0.00 0.00 0.00 0.00 0.00 0.00
0.00 0.00 0.00 0.00 0.00 0.00 0.00 0.00 0.00 0.00 0.00 0.00 0.00 0.00 0.00 0.00 0.00 0.00 0.00 0.00 0.00 0.00 0.00 0.00 0.00 0.00 0.00 0.00 0.00 0.00 0.00 0.00 0.00 0.00 0.00 0.00 0.00 0.00 0.00 0.00 0.00 0.00 0.00 0.00 0.00 0.00 0.00 0.00 0.00
0.00 0.00 0.00 0.00 0.00 0.00 0.00 0.00 0.00 0.00 0.00 0.00 0.00 0.00 0.00 0.00 0.00 0.00 0.00 0.00 0.00 0.00 0.00 0.00 0.00 0.00 0.00 0.00 0.00 0.00 0.00 0.00 0.00 0.00 0.00 0.00 0.00 0.00 0.00 0.00 0.00 0.00 0.00 0.00 0.00 0.00 0.00 0.00 0.00
0.00 0.00 0.00 0.00 0.00 0.00 0.00 0.00 0.00 0.00 0.00 0.00 0.00 0.00 0.00 0.00 0.00 0.00 0.00 0.00 0.00 0.00 0.00 0.00 0.00 0.00 0.00 0.00 0.00 0.00 0.00 0.00 0.00 0.00 0.00 0.00 0.00 0.00 0.00 0.00 0.00 0.00 0.00 0.00 0.00 0.00 0.00 0.00 0.00
0.00 0.00 0.00 0.00 0.00 0.00 0.00 0.00 0.00 0.00 0.00 0.00 0.00 0.00 0.00 0.00 0.00 0.00 0.00 0.00 0.00 0.00 0.00 0.00 0.00 0.00 0.00 0.00 0.00 0.00 0.00 0.00 0.00 0.00 0.00 0.00 0.00 0.00 0.00 0.00 0.00 0.00 0.00 0.00 0.00 0.00 0.00 0.00 0.00
0.00 0.00 0.00 0.00 0.00 0.00 0.00 0.00 0.00 0.00 0.00 0.00 0.00 0.00 0.00 0.00 0.00 0.00 0.00 0.00 0.00 0.00 0.00 0.00 0.00 0.00 0.00 0.00 0.00 0.00 0.00 0.00 0.00 0.00 0.00 0.00 0.00 0.00 0.00 0.00 0.00 0.00 0.00 0.00 0.00 0.00 0.00 0.00 0.00
0.00 0.00 0.00 0.00 0.00 0.00 0.00 0.00 0.00 0.00 0.00 0.00 0.00 0.00 0.00 0.00 0.00 0.00 0.00 0.00 0.00 0.00 0.00 0.00 0.00 0.00 0.00 0.00 0.00 0.00 0.00 0.00 0.00 0.00 0.00 0.00 0.00 0.00 0.00 0.00 0.00 0.00 0.00 0.00 0.00 0.00 0.00 0.00 0.00
0.00 0.00 0.00 0.00 0.00 0.00 0.00 0.00 0.00 0.00 0.00 0.00 0.00 0.00 0.00 0.00 0.00 0.00 0.00 0.00 0.00 0.00 0.00 0.00 0.00 0.00 0.00 0.00 0.00 0.00 0.00 0.00 0.00 0.00 0.00 0.00 0.00 0.00 0.00 0.00 0.00 0.00 0.00 0.00 0.00 0.00 0.00 0.00 0.00
0.00 0.00 0.00 0.00 0.00 0.00 0.00 0.00 0.00 0.00 0.00 0.00 0.00 0.00 0.00 0.00 0.00 0.00 0.00 0.00 0.00 0.00 0.00 0.00 0.00 0.00 0.00 0.00 0.00 0.00 0.00 0.00 0.00 0.00 0.00 0.00 0.00 0.00 0.00 0.00 0.00 0.00 0.00 0.00 0.00 0.00 0.00 0.00 0.00
0.00 0.00 0.00 0.00 0.00 0.00 0.00 0.00 0.00 0.00 0.00 0.00 0.00 0.00 0.00 0.00 0.00 0.00 0.00 0.00 0.00 0.00 0.00 0.00 0.00 0.00 0.00 0.00 0.00 0.00 0.00 0.00 0.00 0.00 0.00 0.00 0.00 0.00 0.00 0.00 0.00 0.00 0.00 0.00 0.00 0.00 0.00 0.00 0.00
0.00 0.00 0.00 0.00 0.00 0.00 0.00 0.00 0.00 0.00 0.00 0.00 0.00 0.00 0.00 0.00 0.00 0.00 0.00 0.00 0.00 0.00 0.00 0.00 0.00 0.00 0.00 0.00 0.00 0.00 0.00 0.00 0.00 0.00 0.00 0.00 0.00 0.00 0.00 0.00 0.00 0.00 0.00 0.00 0.00 0.00 0.00 0.00 0.00
0.00 0.00 0.00 0.00 0.00 0.00 0.00 0.00 0.00 0.00 0.00 0.00 0.00 0.00 0.00 0.00 0.00 0.00 0.00 0.00 0.00 0.00 0.00 0.00 0.00 0.00 0.00 0.00 0.00 0.00 0.00 0.00 0.00 0.00 0.00 0.00 0.00 0.00 0.00 0.00 0.00 0.00 0.00 0.00 0.00 0.00 0.00 0.00 0.00
0.00 0.00 0.00 0.00 0.00 0.00 0.00 0.00 0.00 0.00 0.00 0.00 0.00 0.00 0.00 0.00 0.00 0.00 0.00 0.00 0.00 0.00 0.00 0.00 0.00 0.00 0.00 0.00 0.00 0.00 0.00 0.00 0.00 0.00 0.00 0.00 0.00 0.00 0.00 0.00 0.00 0.00 0.00 0.00 0.00 0.00 0.00 0.00 0.00
0.00 0.00 0.00 0.00 0.00 0.00 0.00 0.00 0.00 0.00 0.00 0.00 0.00 0.00 0.00 0.00 0.00 0.00 0.00 0.00 0.00 0.00 0.00 0.00 0.00 0.00 0.00 0.00 0.00 0.00 0.00 0.00 0.00 0.00 0.00 0.00 0.00 0.00 0.00 0.00 0.00 0.00 0.00 0.00 0.00 0.00 0.00 0.00 0.00
0.00 0.00 0.00 0.00 0.00 0.00 0.00 0.00 0.00 0.00 0.00 0.00 0.00 0.00 0.00 0.00 0.00 0.00 0.00 0.00 0.00 0.00 0.00 0.00 0.00 0.00 0.00 0.00 0.00 0.00 0.00 0.00 0.00 0.00 0.00 0.00 0.00 0.00 0.00 0.00 0.00 0.00 0.00 0.00 0.00 0.00 0.00 0.00 0.00
0.00 0.00 0.00 0.00 0.00 0.00 0.00 0.00 0.00 0.00 0.00 0.00 0.00 0.00 0.00 0.00 0.00 0.00 0.00 0.00 0.00 0.00 0.00 0.00 0.00 0.00 0.00 0.00 0.00 0.00 0.00 0.00 0.00 0.00 0.00 0.00 0.00 0.00 0.00 0.00 0.00 0.00 0.00 0.00 0.00 0.00 0.00 0.00 0.00
0.00 0.00 0.00 0.00 0.00 0.00 0.00 0.00 0.00 0.00 0.00 0.00 0.00 0.00 0.00 0.00 0.00 0.00 0.00 0.00 0.00 0.00 0.00 0.00 0.00 0.00 0.00 0.00 0.00 0.00 0.00 0.00 0.00 0.00 0.00 0.00 0.00 0.00 0.00 0.00 0.00 0.00 0.00 0.00 0.00 0.00 0.00 0.00 0.00
0.00 0.00 0.00 0.00 0.00 0.00 0.00 0.00 0.00 0.00 0.00 0.00 0.00 0.00 0.00 0.00 0.00 0.00 0.00 0.00 0.00 0.00 0.00 0.00 0.00 0.00 0.00 0.00 0.00 0.00 0.00 0.00 0.00 0.00 0.00 0.00 0.00 0.00 0.00 0.00 0.00 0.00 0.00 0.00 0.00 0.00 0.00 0.00 0.00
0.00 0.00 0.00 0.00 0.00 0.00 0.00 0.00 0.00 0.00 0.00 0.00 0.00 0.00 0.00 0.00 0.00 0.00 0.00 0.00 0.00 0.00 0.00 0.00 0.00 0.00 0.00 0.00 0.00 0.00 0.00 0.00 0.00 0.00 0.00 0.00 0.00 0.00 0.00 0.00 0.00 0.00 0.00 0.00 0.00 0.00 0.00 0.00 0.00
0.00 0.00 0.00 0.00 0.00 0.00 0.00 0.00 0.00 0.00 0.00 0.00 0.00 0.00 0.00 0.00 0.00 0.00 0.00 0.00 0.00 0.00 0.00 0.00 0.00 0.00 0.00 0.00 0.00 0.00 0.00 0.00 0.00 0.00 0.00 0.00 0.00 0.00 0.00 0.00 0.00 0.00 0.00 0.00 0.00 0.00 0.00 0.00 0.00
0.00 0.00 0.00 0.00 0.00 0.00 0.00 0.00 0.00 0.00 0.00 0.00 0.00 0.00 0.00 0.00 0.00 0.00 0.00 0.00 0.00 0.00 0.00 0.00 0.00 0.00 0.00 0.00 0.00 0.00 0.00 0.00 0.00 0.00 0.00 0.00 0.00 0.00 0.00 0.00 0.00 0.00 0.00 0.00 0.00 0.00 0.00 0.00 0.00
0.00 0.00 0.00 0.00 0.00 0.00 0.00 0.00 0.00 0.00 0.00 0.00 0.00 0.00 0.00 0.00 0.00 0.00 0.00 0.00 0.00 0.00 0.00 0.00 0.00 0.00 0.00 0.00 0.00 0.00 0.00 0.00 0.00 0.00 0.00 0.00 0.00 0.00 0.01 0.00 0.00 0.00 0.00 0.00 0.00 0.00 0.00 0.00 0.00
0.00 0.00 0.00 0.00 0.00 0.00 0.00 0.00 0.00 0.00 0.00 0.00 0.00 0.00 0.00 0.00 0.00 0.00 0.00 0.00 0.00 0.00 0.00 0.00 0.00 0.00 0.00 0.00 0.00 0.00 0.00 0.00 0.00 0.00 0.00 0.00 0.00 0.00 0.00 0.00 0.00 0.00 0.00 0.00 0.00 0.00 0.00 0.00 0.00
0.00 0.00 0.00 0.00 0.00 0.00 0.00 0.00 0.00 0.00 0.00 0.00 0.00 0.00 0.00 0.00 0.00 0.00 0.00 0.00 0.00 0.00 0.00 0.00 0.00 0.00 0.00 0.00 0.00 0.00 0.00 0.00 0.00 0.00 0.00 0.00 0.00 0.00 0.00 0.01 0.00 0.00 0.00 0.00 0.00 0.00 0.00 0.00 0.00
0.00 0.00 0.00 0.00 0.00 0.00 0.00 0.00 0.00 0.00 0.00 0.00 0.00 0.00 0.00 0.00 0.00 0.00 0.00 0.00 0.00 0.00 0.00 0.00 0.00 0.00 0.00 0.00 0.00 0.00 0.00 0.00 0.00 0.00 0.00 0.00 0.00 0.00 0.00 0.00 0.00 0.00 0.00 0.00 0.00 0.00 0.00 0.00 0.00
0.00 0.00 0.00 0.01 0.01 0.00 0.00 0.00 0.00 0.00 0.00 0.00 0.00 0.00 0.00 0.00 0.00 0.00 0.00 0.00 0.00 0.00 0.00 0.00 0.00 0.00 0.00 0.00 0.00 0.00 0.00 0.00 0.00 0.00 0.00 0.00 0.00 0.00 0.00 0.00 0.00 0.00 0.00 0.00 0.00 0.00 0.00 0.00 0.00
0.00 0.00 0.00 0.00 0.01 0.02 0.01 0.00 0.00 0.00 0.00 0.00 0.00 0.00 0.00 0.00 0.00 0.00 0.00 0.00 0.00 0.00 0.00 0.00 0.00 0.00 0.00 0.00 0.00 0.00 0.00 0.00 0.00 0.00 0.00 0.00 0.00 0.00 0.00 0.00 0.00 0.00 0.00 0.00 0.00 0.00 0.00 0.00 0.00
0.00 0.00 0.01 0.06 0.05 0.01 0.02 0.00 0.00 0.00 0.00 0.00 0.00 0.00 0.00 0.00 0.00 0.00 0.00 0.00 0.00 0.00 0.00 0.00 0.00 0.00 0.00 0.00 0.00 0.00 0.00 0.00 0.00 0.00 0.00 0.00 0.00 0.00 0.00 0.00 0.00 0.00 0.00 0.00 0.00 0.00 0.00 0.00 0.00
MSLP
1009.73 1007.81 1007.19 1006.09 1004.44 1001.93 999.67 998.29 997.69 998.46 999.23 999.38 999.58 999.49 999.11 998.44 998.61 999.29 1000.97 1001.45 1001.93 1003.21 1005.27 1006.49 1007.02 1007.61 1008.34 1008.81 1009.09 1009.52 1010.00 1010.39 1010.74 1011.08 1011.59 1011.98 1012.26 1012.54 1012.79 1013.03 1013.26 1013.55 1013.75 1013.95 1014.07 1014.14 1014.29 1014.45 1014.54
1009.23 1007.72 1006.89 1005.27 1003.57 1000.94 999.20 998.35 998.70 999.08 999.54 1000.53 1000.42 1000.06 999.93 999.56 999.84 1000.96 1000.94 1002.46 1002.45 1003.62 1005.28 1006.17 1007.05 1007.62 1008.16 1008.86 1009.31 1009.55 1009.95 1010.43 1010.94 1011.32 1011.61 1011.98 1012.38 1012.68 1012.98 1013.24 1013.50 1013.70 1013.88 1014.13 1014.26 1014.32 1014.38 1014.40 1014.59
1009.02 1007.80 1006.53 1004.56 1003.14 1001.59 999.39 999.09 999.32 999.59 1000.80 1000.86 1000.42 1000.38 1000.37 1000.64 1001.37 1002.25 1002.16 1002.82 1002.97 1003.80 1005.21 1005.88 1006.99 1007.34 1008.13 1008.92 1009.31 1009.67 1009.94 1010.35 1010.80 1011.31 1011.76 1012.10 1012.47 1012.86 1013.09 1013.38 1013.51 1013.71 1013.88 1014.01 1014.23 1014.45 1014.45 1014.43 1014.50
1007.79 1006.60 1006.08 1004.79 1002.84 1001.72 1001.30 1001.10 1001.21 1000.49 1001.19 1001.14 1000.86 1000.79 1001.09 1002.18 1002.60 1002.97 1002.95 1002.87 1003.02 1003.49 1004.78 1006.17 1007.25 1007.34 1008.06 1008.96 1009.58 1009.93 1010.08 1010.43 1010.96 1011.31 1011.71 1012.10 1012.50 1012.85 1013.22 1013.45 1013.77 1014.01 1014.12 1014.22 1014.27 1014.57 1014.75 1014.76 1014.75
1007.46 1006.35 1004.80 1003.73 1002.86 1002.16 1001.78 1002.53 1002.36 1001.74 1001.23 1001.14 1000.83 1000.80 1001.12 1002.10 1002.96 1003.20 1002.93 1002.68 1002.67 1003.07 1004.23 1006.24 1007.47 1007.71 1007.89 1008.82 1009.61 1010.06 1010.46 1010.73 1011.12 1011.43 1011.86 1012.23 1012.61 1012.88 1013.34 1013.71 1013.87 1014.10 1014.39 1014.56 1014.53 1014.65 1014.93 1015.04 1015.13
1006.62 1005.80 1004.57 1003.17 1002.36 1002.21 1002.40 1003.42 1003.25 1002.74 1001.69 1001.16 1001.16 1001.06 1001.19 1001.91 1002.81 1003.01 1003.13 1002.49 1002.40 1002.80 1003.99 1005.71 1007.50 1008.27 1008.33 1008.73 1009.59 1010.13 1010.68 1011.06 1011.34 1011.80 1012.17 1012.50 1012.80 1013.20 1013.41 1013.77 1013.95 1014.07 1014.38 1014.70 1014.70 1014.76 1015.08 1015.41 1015.45
1006.42 1005.34 1004.14 1003.44 1002.18 1001.56 1002.26 1003.75 1003.66 1003.16 1001.90 1001.30 1001.10 1001.33 1001.06 1001.85 1002.99 1002.61 1002.94 1002.97 1002.63 1002.74 1003.90 1005.59 1006.82 1008.03 1008.76 1009.07 1009.64 1010.19 1010.65 1011.20 1011.69 1011.97 1012.33 1012.53 1012.91 1013.34 1013.64 1013.82 1014.08 1014.23 1014.45 1014.61 1014.86 1014.95 1014.92 1015.31 1015.60
1006.06 1005.48 1004.21 1003.08 1002.24 1001.58 1001.68 1003.10 1004.18 1003.81 1003.14 1002.00 1002.74 1002.08 1001.55 1002.74 1003.07 1002.39 1002.22 1002.84 1002.82 1002.81 1003.70 1005.14 1006.69 1007.45 1008.01 1008.79 1009.70 1010.20 1010.72 1011.21 1011.77 1012.16 1012.57 1012.74 1013.00 1013.44 1013.78 1013.99 1014.29 1014.38 1014.55 1014.73 1014.88 1015.12 1015.16 1015.16 1015.22
1006.15 1005.09 1003.29 1002.65 1002.08 1001.57 1001.63 1001.95 1003.42 1004.39 1004.19 1003.52 1002.55 1002.63 1002.69 1003.31 1003.07 1002.40 1002.05 1002.50 1002.77 1002.79 1003.62 1004.58 1005.98 1007.01 1007.47 1007.85 1009.01 1010.12 1010.69 1011.32 1011.85 1012.19 1012.54 1012.88 1012.61 1012.91 1013.34 1013.56 1013.81 1014.21 1014.44 1014.58 1014.82 1015.00 1015.35 1015.23 1015.03
1005.20 1003.99 1002.90 1002.80 1002.07 1001.42 1001.27 1001.32 1002.42 1003.92 1004.07 1004.42 1003.71 1002.81 1002.89 1003.44 1003.40 1002.89 1002.36 1002.09 1002.95 1003.04 1003.51 1004.07 1005.40 1006.30 1007.02 1007.13 1008.14 1009.33 1009.94 1010.57 1011.17 1011.54 1011.86 1012.21 1012.04 1012.00 1012.37 1012.76 1013.63 1014.13 1014.35 1014.46 1014.61 1014.68 1015.00 1015.05 1014.09
1004.53 1003.27 1002.99 1002.30 1002.05 1001.80 1001.36 1001.17 1001.77 1002.49 1003.70 1004.19 1004.56 1003.46 1003.46 1003.95 1003.83 1003.39 1002.71 1002.98 1003.00 1003.18 1003.65 1004.10 1005.18 1006.03 1006.71 1006.71 1007.33 1008.51 1008.90 1009.72 1010.38 1010.88 1011.27 1011.52 1011.29 1011.40 1011.86 1012.14 1013.08 1013.54 1014.11 1013.85 1014.03 1014.22 1014.41 1013.99 1013.40
1003.89 1003.48 1003.19 1002.74 1002.37 1001.88 1001.44 1001.70 1001.72 1001.96 1002.31 1003.59 1004.25 1004.27 1004.18 1004.13 1003.98 1003.76 1003.39 1003.18 1003.43 1003.24 1003.65 1004.21 1004.98 1006.10 1006.64 1006.67 1007.04 1007.51 1008.20 1008.63 1009.35 1010.00 1010.68 1010.86 1011.23 1010.98 1011.24 1011.46 1011.55 1012.38 1012.44 1012.90 1012.75 1012.45 1012.65 1012.74 1012.85
1003.65 1003.43 1003.10 1002.96 1002.72 1002.60 1002.29 1001.88 1002.10 1002.00 1002.26 1003.05 1004.10 1004.74 1003.94 1003.97 1004.24 1004.10 1003.77 1003.41 1004.25 1003.94 1003.67 1004.21 1005.21 1006.32 1007.09 1007.18 1006.80 1007.22 1007.59 1008.12 1008.49 1009.08 1009.86 1010.48 1010.58 1010.94 1011.02 1011.21 1011.11 1011.06 1011.25 1011.62 1012.08 1011.89 1011.74 1011.87 1012.18
1003.99 1003.63 1003.50 1003.23 1002.59 1003.06 1002.68 1002.26 1002.50 1002.11 1002.46 1002.54 1003.16 1003.98 1003.67 1003.41 1004.17 1004.35 1004.43 1003.92 1004.53 1004.87 1004.69 1004.77 1005.19 1006.33 1007.33 1007.87 1007.71 1007.57 1007.69 1007.47 1008.14 1008.40 1008.93 1010.01 1010.32 1010.33 1010.68 1011.24 1011.27 1011.13 1011.00 1010.93 1011.19 1011.16 1011.38 1011.73 1011.94
1004.71 1004.33 1003.88 1003.37 1002.99 1002.79 1002.99 1002.20 1001.63 1001.99 1002.09 1001.72 1002.52 1003.26 1003.01 1003.12 1003.90 1004.22 1004.57 1005.04 1005.39 1005.69 1005.97 1005.52 1005.48 1005.94 1006.95 1007.54 1008.02 1008.32 1007.98 1007.92 1007.89 1008.15 1008.66 1009.31 1010.16 1010.13 1010.49 1010.64 1010.88 1010.84 1010.83 1010.85 1010.97 1011.22 1011.32 1011.48 1011.65
1005.09 1004.26 1002.98 1002.14 1002.11 1002.35 1003.05 1001.10 1001.19 1001.28 1001.06 1001.31 1002.09 1002.62 1002.51 1002.97 1003.59 1004.14 1004.59 1005.59 1006.25 1006.22 1006.44 1006.46 1005.19 1005.89 1006.38 1007.26 1007.87 1008.20 1008.15 1008.06 1008.18 1008.15 1008.45 1009.04 1009.61 1010.02 1010.31 1010.13 1010.15 1010.21 1010.44 1010.53 1010.62 1010.84 1010.81 1010.38 1010.44
1003.77 1002.70 1001.85 1001.14 1001.37 1002.12 1002.23 1001.11 1001.09 1000.93 1001.51 1001.98 1002.36 1002.20 1002.51 1002.55 1003.03 1004.05 1004.70 1005.51 1006.39 1006.43 1006.42 1006.47 1006.23 1005.23 1006.38 1007.00 1007.49 1007.86 1007.81 1007.97 1007.61 1007.99 1008.06 1008.86 1009.45 1009.56 1009.84 1009.96 1009.81 1009.85 1009.98 1010.09 1009.97 1009.84 1009.59 1009.83 1009.20
1001.91 1001.58 1001.51 1001.19 1001.41 1002.17 1002.21 1001.30 1001.03 1000.54 1001.43 1001.93 1002.22 1002.36 1002.62 1002.25 1002.20 1003.44 1004.65 1005.30 1006.11 1006.19 1006.43 1006.12 1006.19 1006.36 1006.01 1006.85 1007.50 1007.69 1007.62 1007.62 1007.41 1007.36 1007.61 1008.30 1008.90 1009.13 1009.67 1009.36 1009.29 1009.51 1009.63 1009.36 1009.07 1009.54 1009.47 1009.34 1008.91
1003.53 1003.36 1002.45 1002.02 1001.90 1002.01 1002.23 1001.68 1001.00 1000.61 1000.60 1000.97 1001.43 1001.76 1002.16 1002.58 1002.78 1003.39 1004.30 1005.12 1005.73 1005.88 1006.02 1006.44 1006.48 1007.02 1007.00 1007.21 1007.41 1007.20 1006.28 1006.98 1006.80 1006.91 1006.74 1007.09 1007.82 1008.70 1008.99 1009.19 1008.78 1008.95 1009.10 1009.15 1009.22 1009.00 1009.25 1009.46 1008.60
1004.45 1003.71 1002.97 1002.55 1002.31 1002.49 1002.28 1001.72 1001.34 1000.77 1000.33 1000.41 1000.60 1000.97 1001.54 1002.45 1003.25 1003.66 1004.48 1005.05 1005.14 1005.19 1006.03 1006.50 1006.98 1007.42 1007.45 1007.10 1007.19 1007.51 1006.35 1006.16 1005.91 1005.68 1006.17 1006.33 1006.94 1007.53 1008.37 1008.38 1008.00 1007.97 1008.25 1008.76 1008.72 1008.55 1008.22 1008.27 1007.98
1004.17 1003.64 1003.20 1002.88 1002.59 1002.52 1002.60 1001.40 1000.71 999.80 999.34 999.78 999.99 1000.31 1000.58 1001.26 1002.29 1003.23 1004.35 1005.18 1005.20 1005.15 1005.76 1006.25 1006.79 1006.89 1006.92 1006.38 1006.62 1006.48 1006.28 1006.17 1005.91 1005.72 1005.46 1004.56 1006.32 1006.76 1007.44 1008.02 1008.18 1007.61 1007.75 1007.13 1007.84 1008.09 1007.82 1006.98 1007.41
1003.79 1003.66 1003.43 1003.30 1003.62 1002.42 1001.88 999.91 999.50 999.12 998.99 999.19 999.50 1000.07 1000.48 1001.48 1002.82 1003.65 1004.72 1005.34 1005.47 1005.20 1005.75 1006.19 1006.48 1006.33 1006.42 1006.47 1006.07 1005.99 1006.10 1005.75 1005.61 1005.75 1004.77 1004.67 1005.00 1005.77 1007.02 1007.45 1007.61 1007.23 1006.95 1006.51 1006.72 1007.20 1007.08 1007.38 1007.19
1004.04 1004.09 1004.31 1004.12 1003.61 1003.03 1002.01 1000.79 999.02 998.54 997.98 998.58 999.37 999.87 1000.72 1001.63 1002.36 1003.74 1004.55 1004.99 1005.49 1005.40 1005.84 1006.04 1006.36 1006.30 1006.54 1006.03 1005.82 1006.32 1005.47 1005.14 1004.73 1004.67 1003.91 1002.92 1003.56 1005.21 1006.28 1006.69 1006.97 1006.74 1006.64 1006.33 1005.94 1006.09 1006.88 1006.71 1007.38
1004.87 1004.56 1004.68 1004.28 1003.50 1002.05 1000.81 1000.05 998.32 997.64 997.59 998.70 999.93 1000.59 1000.95 1001.60 1002.26 1003.37 1004.11 1004.75 1004.88 1005.25 1005.58 1005.88 1006.14 1005.95 1006.11 1005.99 1005.83 1005.78 1005.26 1005.26 1004.49 1003.56 1002.86 1002.95 1003.34 1004.33 1004.19 1006.16 1006.59 1005.03 1006.21 1005.77 1005.52 1005.64 1005.46 1005.14 1006.47
1004.71 1004.84 1003.83 1002.93 1001.60 1000.06 998.97 998.78 998.00 997.99 998.65 998.80 999.66 1000.47 1001.27 1001.75 1002.07 1002.56 1002.98 1003.39 1003.70 1004.53 1004.93 1005.37 1005.59 1005.61 1005.99 1005.84 1005.53 1005.20 1005.49 1005.07 1004.75 1004.36 1003.88 1003.60 1003.44 1003.20 1003.29 1004.87 1004.51 1004.31 1005.22 1004.87 1004.78 1005.06 1004.84 1004.88 1005.82
1003.42 1004.13 1003.64 1002.51 1001.75 1000.44 999.95 999.02 997.96 998.19 998.62 999.95 1000.65 1000.99 1001.35 1001.90 1001.76 1002.35 1002.89 1003.37 1003.66 1003.78 1004.39 1004.53 1004.83 1004.88 1005.21 1004.79 1005.15 1005.21 1005.15 1004.68 1004.35 1004.04 1003.88 1003.71 1003.44 1002.99 1002.37 1002.67 1003.40 1003.53 1003.86 1004.12 1004.14 1004.21 1004.06 1004.72 1005.51
1003.46 1003.46 1003.89 1003.77 1003.32 1002.22 1000.56 998.80 997.87 998.52 999.15 1000.15 1000.85 1001.18 1001.41 1001.65 1002.01 1002.51 1002.71 1002.76 1003.09 1003.40 1003.74 1003.98 1004.48 1004.46 1004.56 1004.65 1004.48 1004.37 1004.44 1004.20 1003.74 1003.86 1003.79 1003.53 1003.27 1002.76 1002.62 1001.93 1002.04 1002.63 1002.80 1002.90 1003.27 1003.23 1003.54 1003.91 1005.11
1004.05 1004.25 1004.37 1005.85 1003.85 1002.10 1000.65 999.16 997.65 997.37 999.15 999.90 1000.28 1000.88 1001.17 1001.67 1001.98 1001.97 1001.91 1002.06 1002.42 1002.72 1003.21 1003.53 1003.61 1003.81 1004.05 1004.02 1004.03 1003.99 1003.63 1003.58 1003.53 1003.23 1002.98 1002.87 1002.93 1002.67 1002.09 1001.93 1001.79 1001.89 1001.88 1002.15 1002.34 1002.69 1003.11 1003.52 1004.36
1003.81 1004.15 1004.61 1004.26 1003.96 1003.45 1001.82 1000.10 999.70 999.87 1000.53 1000.04 999.92 1000.17 1000.83 1001.16 1001.27 1001.53 1001.54 1001.70 1001.86 1001.89 1002.20 1002.50 1002.96 1003.25 1003.36 1003.53 1003.40 1003.13 1003.20 1003.11 1003.07 1002.77 1002.70 1002.47 1002.15 1002.11 1002.02 1001.85 1001.17 1001.22 1001.11 1001.05 1001.56 1002.06 1002.54 1003.02 1003.48
1004.45 1004.09 1004.81 1005.03 1004.73 1003.67 1002.75 1000.57 1000.82 1000.40 1000.68 1000.41 1000.04 1000.05 1000.34 1000.29 1000.62 1001.14 1001.37 1001.49 1001.64 1001.73 1001.73 1001.83 1002.55 1002.91 1002.83 1002.78 1002.50 1002.47 1002.42 1002.57 1002.53 1002.34 1002.32 1001.92 1001.32 1000.86 1000.85 1000.68 1000.66 1000.40 1000.32 1000.47 1000.97 1001.41 1001.35 1002.12 1002.49
Thickness
5776 5794 5803 5799 5777 5797 5802 5824 5850 5824 5825 5846 5845 5844 5848 5863 5848 5830 5877 5883 5883 5875 5858 5848 5844 5839 5834 5829 5827 5823 5818 5814 5809 5805 5800 5795 5792 5788 5785 5783 5780 5776 5774 5770 5768 5766 5763 5760 5758
5774 5789 5791 5785 5765 5777 5805 5841 5816 5828 5828 5830 5839 5844 5841 5838 5860 5854 5863 5872 5877 5870 5857 5849 5842 5838 5834 5829 5825 5822 5818 5813 5807 5802 5800 5795 5790 5786 5783 5781 5778 5775 5772 5769 5766 5764 5763 5762 5757
5771 5781 5765 5765 5766 5763 5801 5822 5815 5826 5817 5823 5825 5841 5834 5828 5847 5848 5868 5869 5871 5866 5855 5849 5841 5839 5833 5827 5824 5820 5818 5813 5809 5803 5798 5794 5790 5785 5783 5780 5778 5775 5773 5772 5768 5764 5763 5762 5761
5764 5771 5768 5745 5753 5782 5784 5789 5794 5804 5810 5820 5824 5818 5836 5839 5837 5851 5863 5867 5866 5865 5856 5844 5837 5837 5831 5824 5819 5817 5815 5812 5806 5803 5798 5794 5789 5785 5782 5779 5775 5772 5770 5769 5769 5763 5760 5759 5759
5761 5758 5744 5746 5756 5776 5785 5779 5783 5782 5799 5804 5818 5809 5815 5833 5844 5850 5857 5865 5864 5864 5858 5841 5832 5831 5831 5823 5817 5814 5810 5807 5803 5800 5795 5793 5788 5787 5780 5776 5775 5771 5767 5765 5765 5763 5758 5756 5754
5737 5750 5729 5737 5758 5773 5774 5773 5774 5779 5795 5803 5799 5808 5813 5832 5834 5846 5853 5859 5867 5863 5858 5843 5828 5822 5822 5820 5814 5810 5806 5803 5800 5795 5791 5788 5786 5782 5780 5776 5774 5772 5768 5763 5763 5763 5757 5751 5748
5724 5730 5728 5740 5754 5765 5763 5768 5759 5768 5785 5794 5811 5783 5816 5810 5832 5846 5848 5852 5858 5862 5853 5841 5831 5822 5815 5812 5809 5806 5803 5799 5794 5792 5789 5788 5783 5778 5776 5775 5771 5769 5765 5764 5760 5758 5759 5752 5746
5732 5728 5721 5740 5742 5751 5776 5759 5756 5754 5760 5801 5790 5779 5790 5789 5828 5841 5846 5844 5848 5852 5848 5839 5827 5822 5819 5812 5805 5802 5799 5796 5791 5788 5784 5783 5780 5775 5772 5771 5767 5765 5763 5760 5757 5754 5752 5752 5750
5733 5709 5715 5731 5739 5753 5773 5756 5758 5757 5748 5757 5784 5786 5789 5807 5820 5826 5833 5835 5836 5842 5840 5837 5828 5821 5819 5817 5808 5799 5795 5791 5786 5784 5782 5779 5779 5776 5772 5771 5769 5764 5761 5759 5756 5752 5748 5749 5750
5714 5710 5721 5743 5751 5751 5765 5766 5750 5737 5734 5736 5750 5783 5789 5790 5798 5803 5814 5819 5819 5826 5830 5833 5826 5821 5817 5817 5810 5801 5796 5792 5788 5785 5783 5781 5781 5780 5776 5773 5767 5762 5759 5757 5755 5755 5750 5749 5755
5717 5712 5731 5739 5747 5752 5753 5758 5761 5739 5720 5731 5733 5752 5761 5773 5783 5791 5802 5803 5809 5820 5821 5823 5819 5817 5813 5816 5812 5803 5801 5794 5790 5787 5783 5782 5784 5782 5777 5774 5767 5763 5758 5758 5758 5755 5752 5753 5757
5704 5720 5724 5730 5737 5738 5737 5744 5739 5744 5742 5739 5736 5751 5756 5759 5767 5778 5785 5794 5800 5809 5812 5812 5813 5807 5807 5810 5810 5808 5803 5800 5795 5790 5784 5783 5781 5782 5779 5777 5775 5768 5769 5763 5765 5767 5764 5760 5760
5703 5711 5719 5722 5724 5724 5728 5725 5727 5730 5741 5738 5735 5736 5749 5753 5755 5768 5778 5788 5786 5793 5804 5804 5802 5798 5795 5797 5804 5804 5803 5800 5797 5792 5786 5781 5781 5777 5777 5775 5775 5776 5775 5772 5766 5768 5770 5767 5763
5702 5702 5704 5710 5715 5712 5707 5712 5715 5727 5733 5731 5730 5729 5742 5748 5748 5751 5759 5768 5772 5777 5787 5794 5794 5791 5786 5783 5788 5793 5794 5797 5793 5791 5788 5780 5778 5779 5777 5771 5770 5772 5774 5773 5770 5771 5769 5764 5762
5689 5678 5688 5695 5700 5698 5702 5693 5702 5723 5723 5725 5717 5726 5735 5738 5741 5743 5746 5748 5756 5761 5767 5773 5774 5782 5778 5775 5775 5776 5782 5783 5784 5786 5784 5780 5774 5774 5772 5771 5770 5771 5771 5772 5769 5766 5765 5763 5759
5668 5675 5670 5698 5698 5699 5686 5681 5709 5719 5718 5716 5707 5721 5725 5732 5733 5732 5736 5736 5737 5745 5749 5755 5769 5758 5766 5766 5766 5767 5771 5775 5774 5778 5777 5775 5770 5767 5769 5770 5772 5772 5771 5770 5770 5767 5765 5767 5765
5673 5665 5677 5690 5697 5687 5683 5683 5702 5713 5701 5696 5697 5711 5715 5724 5724 5720 5722 5727 5727 5731 5736 5741 5746 5758 5749 5753 5755 5758 5763 5766 5774 5771 5773 5769 5767 5767 5766 5766 5773 5772 5772 5770 5773 5773 5774 5767 5771
5678 5681 5677 5675 5686 5674 5671 5678 5694 5706 5690 5686 5689 5696 5700 5711 5718 5714 5708 5714 5722 5724 5727 5733 5737 5740 5747 5745 5741 5746 5752 5759 5765 5770 5771 5768 5764 5767 5763 5768 5772 5773 5772 5772 5776 5771 5771 5770 5769
5659 5654 5656 5670 5678 5668 5659 5667 5680 5694 5690 5686 5687 5689 5692 5695 5703 5701 5700 5702 5705 5713 5715 5718 5723 5724 5732 5732 5729 5734 5745 5747 5756 5764 5771 5772 5769 5764 5766 5763 5769 5770 5767 5768 5769 5771 5765 5761 5770
5642 5641 5646 5659 5667 5657 5653 5655 5670 5679 5683 5687 5687 5687 5688 5685 5683 5684 5686 5693 5697 5704 5702 5703 5705 5709 5715 5723 5726 5726 5741 5748 5759 5766 5763 5770 5769 5768 5764 5766 5768 5769 5770 5767 5767 5768 5768 5768 5771
5638 5636 5639 5640 5651 5651 5642 5646 5658 5680 5686 5684 5686 5689 5692 5685 5678 5678 5673 5674 5680 5689 5690 5694 5696 5703 5710 5718 5723 5730 5733 5742 5747 5753 5759 5777 5763 5766 5762 5759 5757 5766 5769 5774 5768 5767 5765 5767 5767
5625 5643 5639 5633 5622 5620 5650 5632 5657 5669 5670 5672 5676 5676 5679 5673 5668 5664 5658 5655 5662 5675 5683 5683 5684 5696 5702 5708 5716 5719 5722 5730 5739 5739 5756 5761 5764 5765 5754 5754 5755 5765 5770 5773 5772 5771 5768 5762 5755
5623 5634 5622 5621 5617 5618 5628 5623 5650 5669 5665 5662 5664 5667 5666 5664 5664 5655 5652 5653 5655 5664 5666 5673 5677 5680 5684 5696 5707 5704 5719 5727 5736 5737 5750 5767 5767 5758 5751 5750 5752 5757 5764 5769 5767 5768 5762 5763 5756
5621 5615 5611 5613 5614 5605 5631 5632 5646 5663 5661 5651 5649 5649 5653 5654 5655 5651 5650 5649 5650 5655 5655 5662 5662 5673 5676 5683 5690 5695 5704 5711 5726 5741 5751 5758 5759 5754 5756 5742 5744 5759 5759 5765 5768 5764 5767 5770 5757
5607 5597 5591 5604 5618 5622 5662 5638 5650 5658 5652 5653 5644 5643 5642 5644 5645 5646 5647 5648 5652 5649 5651 5655 5656 5659 5661 5671 5680 5690 5694 5704 5711 5720 5731 5738 5745 5752 5756 5745 5744 5755 5757 5765 5765 5762 5767 5766 5757
5616 5603 5597 5585 5599 5618 5635 5614 5641 5654 5653 5637 5635 5635 5635 5633 5639 5637 5638 5639 5642 5646 5646 5650 5651 5655 5655 5666 5668 5675 5683 5694 5702 5711 5719 5725 5732 5741 5754 5757 5756 5761 5763 5764 5764 5762 5768 5762 5753
5607 5598 5611 5586 5596 5593 5616 5637 5654 5639 5636 5625 5622 5623 5623 5626 5627 5626 5629 5634 5635 5636 5639 5642 5642 5647 5652 5656 5662 5667 5674 5684 5692 5699 5709 5715 5724 5735 5741 5754 5759 5759 5761 5764 5762 5762 5760 5759 5748
5593 5602 5579 5557 5558 5578 5605 5618 5628 5638 5615 5617 5617 5615 5617 5616 5618 5622 5626 5628 5630 5631 5631 5632 5638 5640 5641 5647 5652 5656 5666 5673 5680 5690 5700 5708 5715 5724 5736 5740 5748 5755 5758 5759 5760 5758 5755 5754 5746
5589 5579 5578 5585 5581 5559 5574 5601 5608 5603 5598 5608 5613 5615 5612 5612 5614 5616 5619 5620 5622 5627 5628 5628 5629 5630 5633 5636 5643 5650 5655 5662 5669 5678 5687 5695 5706 5716 5722 5729 5741 5746 5753 5757 5756 5752 5750 5748 5744
5580 5579 5572 5549 5551 5570 5572 5588 5607 5605 5604 5606 5609 5610 5609 5612 5612 5609 5609 5612 5613 5613 5616 5619 5617 5617 5623 5630 5637 5643 5649 5652 5658 5667 5675 5687 5699 5712 5719 5727 5732 5741 5748 5752 5750 5747 5752 5746 5743